Weather History for PAWG - July, 2013

Change the Weather History Date:

Saturday, July 6, 2013

  Actual Average Record
Temperature  
Mean Temperature 56 °F -  
Max Temperature 60 °F 63 °F 77 °F (1990)
Min Temperature 53 °F 48 °F 36 °F (1973)
Degree Days  
Heating Degree Days 8    
Growing Degree Days 6 (Base 50)    
Moisture  
Dew Point 48 °F    
Average Humidity 71    
Maximum Humidity 82    
Minimum Humidity 59    
Precipitation  
Precipitation 0.00 in - - ()
Sea Level Pressure  
Sea Level Pressure 30.14 in    
Wind  
Wind Speed 4 mph (West)    
Max Wind Speed 13 mph    
Max Gust Speed -    
Visibility 10 miles    
Events      
Averages and records for this station are not official NWS values.
T = Trace of Precipitation, MM = Missing Value Source: NWS Daily Summary

Daily Weather History Graph

Daily Weather History Graph

Search for Another Location

Airport or City:

Trip Planner

Search our weather history database for the weather conditions in past years. The results will help you decide how hot, cold, wet, or windy it might be!

Date:

Astronomy

Jul. 06, 2013 Rise Set
Actual Time 4:09 AM AKDT 9:38 PM AKDT
Civil Twilight 3:07 AM AKDT 10:39 PM AKDT
Nautical Twilight 1:26 AM AKDT 12:21 AM AKDT
Astronomical Twilight Sun does not rise Sun does not rise
Moon 3:14 AM AKDT (7/6) 8:10 PM AKDT (7/6)
Length of Visible Light 19h 31m
Length of Day
17h 28m
Waning Crescent, 2% of the Moon is Illuminated
Jul 6
Waning Crescent
Jul 7
New
Jul 15
First Quarter
Jul 22
Full
Jul 29
Last Quarter

Hourly Weather History & Observations

Time (AKDT) Temp. Dew Point Humidity Pressure Visibility Wind Dir Wind Speed Gust Speed Precip Events Conditions
12:16 AM 57.2 °F 46.4 °F 67% 30.19 in 10.0 mi Calm Calm - N/A   Overcast
12:36 AM 55.4 °F 48.2 °F 77% 30.19 in 10.0 mi NW 3.5 mph - N/A   Overcast
12:56 AM 55.4 °F 46.4 °F 72% 30.19 in 10.0 mi West 4.6 mph - N/A   Overcast
1:16 AM 55.4 °F 46.4 °F 72% 30.19 in 10.0 mi Calm Calm - N/A   Overcast
1:36 AM 55.4 °F 48.2 °F 77% 30.19 in 10.0 mi West 4.6 mph - N/A   Overcast
1:56 AM 55.4 °F 46.4 °F 72% 30.19 in 10.0 mi WNW 4.6 mph - N/A   Overcast
2:16 AM 53.6 °F 48.2 °F 82% 30.19 in 10.0 mi Calm Calm - N/A   Overcast
2:36 AM 55.4 °F 48.2 °F 77% 30.19 in 10.0 mi Calm Calm - N/A   Overcast
2:56 AM 55.4 °F 48.2 °F 77% 30.18 in 10.0 mi Calm Calm - N/A   Overcast
3:16 AM 53.6 °F 48.2 °F 82% 30.18 in 10.0 mi Calm Calm - N/A   Overcast
3:36 AM 53.6 °F 48.2 °F 82% 30.18 in 10.0 mi Calm Calm - N/A   Overcast
3:56 AM 53.6 °F 48.2 °F 82% 30.18 in 10.0 mi NW 3.5 mph - N/A   Overcast
4:16 AM 53.6 °F 48.2 °F 82% 30.18 in 10.0 mi Calm Calm - N/A   Overcast
4:36 AM 53.6 °F 48.2 °F 82% 30.17 in 10.0 mi West 5.8 mph - N/A   Overcast
4:56 AM 53.6 °F 48.2 °F 82% 30.17 in 10.0 mi WNW 5.8 mph - N/A   Overcast
5:16 AM 53.6 °F 46.4 °F 77% 30.17 in 10.0 mi WNW 6.9 mph - N/A   Overcast
5:36 AM 53.6 °F 48.2 °F 82% 30.17 in 10.0 mi Calm Calm - N/A   Overcast
5:56 AM 53.6 °F 48.2 °F 82% 30.17 in 10.0 mi Calm Calm - N/A   Overcast
6:16 AM 53.6 °F 48.2 °F 82% 30.17 in 10.0 mi Calm Calm - N/A   Overcast
6:36 AM 55.4 °F 46.4 °F 72% 30.17 in 10.0 mi WNW 4.6 mph - N/A   Overcast
6:56 AM 55.4 °F 48.2 °F 77% 30.16 in 10.0 mi WNW 5.8 mph - N/A   Mostly Cloudy
7:16 AM 55.4 °F 48.2 °F 77% 30.16 in 10.0 mi West 9.2 mph - N/A   Mostly Cloudy
7:36 AM 55.4 °F 48.2 °F 77% 30.16 in 10.0 mi WNW 8.1 mph - N/A   Mostly Cloudy
7:56 AM 53.6 °F 46.4 °F 77% 30.16 in 10.0 mi West 5.8 mph - N/A   Mostly Cloudy
8:16 AM 55.4 °F 46.4 °F 72% 30.16 in 10.0 mi West 8.1 mph - N/A   Mostly Cloudy
8:36 AM 55.4 °F 48.2 °F 77% 30.16 in 10.0 mi West 11.5 mph - N/A   Mostly Cloudy
8:56 AM 55.4 °F 48.2 °F 77% 30.16 in 10.0 mi West 12.7 mph - N/A   Mostly Cloudy
9:16 AM 55.4 °F 46.4 °F 72% 30.16 in 10.0 mi WNW 8.1 mph - N/A   Mostly Cloudy
9:36 AM 55.4 °F 46.4 °F 72% 30.16 in 10.0 mi WNW 5.8 mph - N/A   Mostly Cloudy
9:56 AM 55.4 °F 48.2 °F 77% 30.16 in 10.0 mi WNW 6.9 mph - N/A   Mostly Cloudy
10:16 AM 57.2 °F 48.2 °F 72% 30.16 in 10.0 mi WNW 6.9 mph - N/A   Mostly Cloudy
10:36 AM 57.2 °F 48.2 °F 72% 30.16 in 10.0 mi WNW 6.9 mph - N/A   Mostly Cloudy
10:56 AM 57.2 °F 48.2 °F 72% 30.16 in 10.0 mi West 8.1 mph - N/A   Mostly Cloudy
11:16 AM 57.2 °F 48.2 °F 72% 30.15 in 10.0 mi West 6.9 mph - N/A   Mostly Cloudy
11:36 AM 59.0 °F 48.2 °F 67% 30.15 in 10.0 mi West 6.9 mph - N/A   Mostly Cloudy
11:56 AM 57.2 °F 46.4 °F 67% 30.15 in 10.0 mi West 8.1 mph - N/A   Mostly Cloudy
12:16 PM 57.2 °F 48.2 °F 72% 30.15 in 10.0 mi WSW 5.8 mph - N/A   Mostly Cloudy
12:36 PM 59.0 °F 48.2 °F 67% 30.15 in 10.0 mi West 6.9 mph - N/A   Mostly Cloudy
12:56 PM 59.0 °F 48.2 °F 67% 30.14 in 10.0 mi West 6.9 mph - N/A   Mostly Cloudy
1:16 PM 60.8 °F 50.0 °F 68% 30.14 in 10.0 mi NW 5.8 mph - N/A   Mostly Cloudy
1:36 PM 60.8 °F 48.2 °F 63% 30.14 in 10.0 mi WNW 6.9 mph - N/A   Mostly Cloudy
1:56 PM 60.8 °F 48.2 °F 63% 30.14 in 10.0 mi West 5.8 mph - N/A   Mostly Cloudy
2:16 PM 60.8 °F 50.0 °F 68% 30.14 in 10.0 mi West 6.9 mph - N/A   Mostly Cloudy
2:36 PM 60.8 °F 48.2 °F 63% 30.13 in 10.0 mi WNW 8.1 mph - N/A   Mostly Cloudy
2:56 PM 60.8 °F 48.2 °F 63% 30.13 in 10.0 mi West 5.8 mph - N/A   Scattered Clouds
3:16 PM 60.8 °F 48.2 °F 63% 30.13 in 10.0 mi West 9.2 mph - N/A   Scattered Clouds
3:36 PM 60.8 °F 48.2 °F 63% 30.12 in 10.0 mi WNW 5.8 mph - N/A   Scattered Clouds
3:56 PM 59.0 °F 48.2 °F 67% 30.12 in 10.0 mi West 5.8 mph - N/A   Scattered Clouds
4:16 PM 60.8 °F 48.2 °F 63% 30.12 in 10.0 mi West 4.6 mph - N/A   Scattered Clouds
4:36 PM 60.8 °F 46.4 °F 59% 30.11 in 10.0 mi WSW 5.8 mph - N/A   Scattered Clouds
4:56 PM 60.8 °F 46.4 °F 59% 30.11 in 10.0 mi West 4.6 mph - N/A   Overcast
5:16 PM 60.8 °F 46.4 °F 59% 30.10 in 10.0 mi West 5.8 mph - N/A   Overcast
5:36 PM 60.8 °F 48.2 °F 63% 30.10 in 10.0 mi West 5.8 mph - N/A   Overcast
5:56 PM 60.8 °F 48.2 °F 63% 30.10 in 10.0 mi West 4.6 mph - N/A   Overcast
6:16 PM 60.8 °F 48.2 °F 63% 30.10 in 10.0 mi West 4.6 mph - N/A   Overcast
6:36 PM 59.0 °F 48.2 °F 67% 30.09 in 10.0 mi WSW 5.8 mph - N/A   Overcast
6:56 PM 59.0 °F 48.2 °F 67% 30.09 in 10.0 mi SW 6.9 mph - N/A   Overcast
7:16 PM 59.0 °F 48.2 °F 67% 30.09 in 10.0 mi SW 5.8 mph - N/A   Overcast
7:36 PM 59.0 °F 48.2 °F 67% 30.09 in 10.0 mi WSW 4.6 mph - N/A   Overcast
7:56 PM 59.0 °F 48.2 °F 67% 30.09 in 10.0 mi WSW 4.6 mph - N/A   Overcast
8:16 PM 59.0 °F 48.2 °F 67% 30.09 in 10.0 mi WSW 4.6 mph - N/A   Overcast
8:36 PM 59.0 °F 48.2 °F 67% 30.09 in 10.0 mi WSW 4.6 mph - N/A   Overcast
8:56 PM 59.0 °F 48.2 °F 67% 30.09 in 10.0 mi Calm Calm - N/A   Overcast
9:16 PM 59.0 °F 46.4 °F 63% 30.09 in 10.0 mi SW 3.5 mph - N/A   Overcast
9:36 PM 57.2 °F 48.2 °F 72% 30.09 in 10.0 mi Calm Calm - N/A   Overcast
9:56 PM 55.4 °F 48.2 °F 77% 30.09 in 10.0 mi WNW 3.5 mph - N/A   Overcast
10:16 PM 55.4 °F 46.4 °F 72% 30.09 in 10.0 mi SW 3.5 mph - N/A   Overcast
10:36 PM 55.4 °F 46.4 °F 72% 30.09 in 10.0 mi SW 3.5 mph - N/A   Overcast
10:56 PM 53.6 °F 46.4 °F 77% 30.09 in 10.0 mi WSW 4.6 mph - N/A   Overcast
11:16 PM 55.4 °F 46.4 °F 72% 30.09 in 10.0 mi West 5.8 mph - N/A   Overcast
11:36 PM 55.4 °F 46.4 °F 72% 30.09 in 10.0 mi Calm Calm - N/A   Overcast
11:56 PM 55.4 °F 46.4 °F 72% 30.09 in 10.0 mi Calm Calm - N/A   Overcast